Starlink 31116

operational
NORAD ID: 58947 Int'l Des: 2024-027 Owner: SPXS Country: US Constellation: starlink
LEOCIRCULAR

About Starlink 31116

Description loading...

Live Position

Loading 3D Globe...

Upcoming Passes

Altitude History

Altitude vs Time

uPlot chart will show altitude changes over time

Two-Line Element Set

1 58947U 24027S 26070.03728781 -.00000765 00000-0 -13712-4 0 9997
2 58947 53.1608 303.4294 0001081 88.3984 271.7141 15.30177895117539
Epoch: Mar 11, 2026 • Age: 41 hours

Current Status

Altitude 476.7 km
Velocity 7.63 km/s
Sub-Earth Point 31.14°N, 28.24°E
Launch Date Feb 10, 2024
Age 2 years
Type internet

Technical Details

Classification Payload
Mass 730.00 kg
Dry Mass 700.00 kg
Total Mass 730.00 kg
Length 0.30 m
Diameter 4.10 m
Span 29.00 m
Shape Box + pan
Manufacturer SPXS
Bus Type Starlink V2M
Phase Status In Orbit
Owner/State SPXS/US

Large Constellations

Loading constellations...